Zurück zum Katalog

STARLINK-35427

AktivKommunikationVLEO
NORAD 66110·PAYLOAD·🇺🇸 United States

Gestartet Oct 19, 2025 von Vandenberg Space Force Base

Loading…

Nächste Überflüge (nächste 24 Stunden)

TLE

AktuellSource: CelesTrak SupGP

Epoche: Sep 15, 2026, 02:40 UTC

1 66110C 25236AA  26258.11159722  .00032934  00000+0  97303-3 0  2586
2 66110  53.1577 303.0787 0001225  93.5324 111.0551 15.34374960    15

Verfolge STARLINK-35427 in Echtzeit mit AllMySat

Download on the App Store